Time,TemperatureF,DewpointF,PressureIn,WindDirection,WindDirectionDegrees,WindSpeedMPH,WindSpeedGustMPH,Humidity,HourlyPrecipIn,Conditions,Clouds,dailyrainin,SoftwareType,DateUTC
2013-04-12 00:00:00,46.5,36.1,29.88,WSW,252,0.0,0.0,67,0.00,,,0.00,Weather View 32 v70,2013-04-12 05:00:00,
2013-04-12 00:05:00,46.5,36.1,29.89,WSW,252,0.0,0.0,67,0.00,,,0.00,Weather View 32 v70,2013-04-12 05:05:00,
2013-04-12 00:10:00,46.5,35.7,29.89,WSW,252,0.0,0.0,66,0.00,,,0.00,Weather View 32 v70,2013-04-12 05:10:00,
2013-04-12 00:15:00,46.5,36.1,29.89,WSW,252,0.0,0.0,67,0.00,,,0.00,Weather View 32 v70,2013-04-12 05:15:00,
2013-04-12 00:20:00,46.4,36.0,29.89,WSW,252,0.0,0.0,67,0.00,,,0.00,Weather View 32 v70,2013-04-12 05:20:00,
2013-04-12 00:25:00,46.3,36.3,29.89,WSW,252,0.0,0.0,68,0.00,,,0.00,Weather View 32 v70,2013-04-12 05:25:00,
2013-04-12 00:30:00,46.1,36.1,29.89,WSW,252,0.0,0.0,68,0.00,,,0.00,Weather View 32 v70,2013-04-12 05:30:00,
2013-04-12 00:35:00,46.1,36.5,29.89,WSW,252,0.0,0.0,69,0.00,,,0.00,Weather View 32 v70,2013-04-12 05:35:00,
2013-04-12 00:45:00,45.8,36.2,29.89,WSW,252,0.0,0.0,69,0.00,,,0.00,Weather View 32 v70,2013-04-12 05:45:00,
2013-04-12 00:50:00,45.7,35.7,29.89,WSW,252,0.0,0.0,68,0.00,,,0.00,Weather View 32 v70,2013-04-12 05:50:00,
2013-04-12 00:55:00,45.6,35.3,29.89,WSW,252,0.0,0.0,67,0.00,,,0.00,Weather View 32 v70,2013-04-12 05:55:00,
2013-04-12 01:00:00,45.6,35.3,29.89,WSW,252,0.0,0.0,67,0.00,,,0.00,Weather View 32 v70,2013-04-12 06:00:00,
2013-04-12 01:05:00,45.6,35.6,29.89,WSW,252,0.0,0.0,68,0.00,,,0.00,Weather View 32 v70,2013-04-12 06:05:00,
2013-04-12 01:10:00,45.6,36.0,29.89,WSW,251,0.0,0.0,69,0.00,,,0.00,Weather View 32 v70,2013-04-12 06:10:00,
2013-04-12 01:15:00,45.4,36.2,29.89,WSW,252,0.0,0.0,70,0.00,,,0.00,Weather View 32 v70,2013-04-12 06:15:00,
2013-04-12 01:20:00,45.3,36.4,29.89,WSW,252,0.0,0.0,71,0.00,,,0.00,Weather View 32 v70,2013-04-12 06:20:00,
2013-04-12 01:25:00,45.2,36.3,29.89,WSW,252,0.0,0.0,71,0.00,,,0.00,Weather View 32 v70,2013-04-12 06:25:00,
2013-04-12 01:30:00,45.1,36.6,29.89,WSW,252,0.0,0.0,72,0.00,,,0.00,Weather View 32 v70,2013-04-12 06:30:00,
2013-04-12 01:35:00,45.0,36.5,29.89,WSW,252,0.0,0.0,72,0.00,,,0.00,Weather View 32 v70,2013-04-12 06:35:00,
2013-04-12 01:40:00,44.9,36.8,29.89,WSW,252,0.0,0.0,73,0.00,,,0.00,Weather View 32 v70,2013-04-12 06:40:00,
2013-04-12 01:50:00,44.7,36.2,29.89,WSW,252,0.0,0.0,72,0.00,,,0.00,Weather View 32 v70,2013-04-12 06:50:00,
2013-04-12 01:55:00,44.7,36.2,29.89,WSW,252,0.0,0.0,72,0.00,,,0.00,Weather View 32 v70,2013-04-12 06:55:00,
2013-04-12 02:00:00,44.7,36.6,29.89,WSW,252,0.0,0.0,73,0.00,,,0.00,Weather View 32 v70,2013-04-12 07:00:00,
2013-04-12 02:05:00,44.6,36.5,29.89,WSW,252,0.0,0.0,73,0.00,,,0.00,Weather View 32 v70,2013-04-12 07:05:00,
2013-04-12 02:10:00,44.7,36.6,29.89,WSW,252,0.0,0.0,73,0.00,,,0.00,Weather View 32 v70,2013-04-12 07:10:00,
2013-04-12 02:15:00,44.5,36.0,29.89,WSW,252,0.0,0.0,72,0.00,,,0.00,Weather View 32 v70,2013-04-12 07:15:00,
2013-04-12 02:20:00,44.4,36.3,29.89,WSW,252,0.0,0.0,73,0.00,,,0.00,Weather View 32 v70,2013-04-12 07:20:00,
2013-04-12 02:25:00,44.3,36.2,29.89,WSW,252,0.0,0.0,73,0.00,,,0.00,Weather View 32 v70,2013-04-12 07:25:00,
2013-04-12 02:35:00,44.3,36.2,29.89,WSW,252,0.0,0.0,73,0.00,,,0.00,Weather View 32 v70,2013-04-12 07:35:00,
2013-04-12 02:45:00,44.3,36.2,29.88,WSW,252,0.0,0.0,73,0.00,,,0.00,Weather View 32 v70,2013-04-12 07:45:00,
2013-04-12 02:50:00,44.3,36.5,29.88,WSW,252,0.0,0.0,74,0.00,,,0.00,Weather View 32 v70,2013-04-12 07:50:00,
2013-04-12 02:55:00,44.2,36.4,29.88,WSW,252,0.0,0.0,74,0.00,,,0.00,Weather View 32 v70,2013-04-12 07:55:00,
2013-04-12 03:00:00,44.1,36.3,29.89,WSW,252,0.0,0.0,74,0.00,,,0.00,Weather View 32 v70,2013-04-12 08:00:00,
2013-04-12 03:05:00,44.1,36.7,29.90,North,354,9.0,11.0,75,0.00,,,0.00,Weather View 32 v70,2013-04-12 08:05:00,
2013-04-12 03:10:00,43.7,36.6,29.90,North,354,5.0,11.0,76,0.00,,,0.00,Weather View 32 v70,2013-04-12 08:10:00,
2013-04-12 03:15:00,43.6,36.5,29.90,NNW,343,3.0,11.0,76,0.00,,,0.00,Weather View 32 v70,2013-04-12 08:15:00,
2013-04-12 03:20:00,43.4,36.3,29.90,NNW,343,0.0,11.0,76,0.00,,,0.00,Weather View 32 v70,2013-04-12 08:20:00,
2013-04-12 03:30:00,43.1,36.0,29.90,NNW,335,0.0,11.0,76,0.00,,,0.00,Weather View 32 v70,2013-04-12 08:30:00,
2013-04-12 03:35:00,43.0,35.9,29.91,NNW,333,6.0,11.0,76,0.00,,,0.00,Weather View 32 v70,2013-04-12 08:35:00,
2013-04-12 03:40:00,42.8,35.8,29.91,NNW,335,2.0,11.0,76,0.00,,,0.00,Weather View 32 v70,2013-04-12 08:40:00,
2013-04-12 03:45:00,42.7,35.3,29.91,NNW,335,5.0,11.0,75,0.00,,,0.00,Weather View 32 v70,2013-04-12 08:45:00,
2013-04-12 03:55:00,42.4,35.0,29.92,NNW,335,6.0,11.0,75,0.00,,,0.00,Weather View 32 v70,2013-04-12 08:55:00,
2013-04-12 04:00:00,42.2,34.8,29.91,NNW,335,0.0,11.0,75,0.00,,,0.00,Weather View 32 v70,2013-04-12 09:00:00,
2013-04-12 04:05:00,42.1,34.4,29.91,NNW,336,0.0,11.0,74,0.00,,,0.00,Weather View 32 v70,2013-04-12 09:05:00,
2013-04-12 04:10:00,42.0,34.3,29.92,NNW,336,0.0,9.0,74,0.00,,,0.00,Weather View 32 v70,2013-04-12 09:10:00,
2013-04-12 04:15:00,41.9,34.2,29.92,NNW,336,0.0,9.0,74,0.00,,,0.00,Weather View 32 v70,2013-04-12 09:15:00,
2013-04-12 04:21:00,41.8,34.1,29.92,NNW,336,0.0,9.0,74,0.00,,,0.00,Weather View 32 v70,2013-04-12 09:21:00,
2013-04-12 04:30:00,41.7,34.0,29.93,NNW,336,0.0,9.0,74,0.00,,,0.00,Weather View 32 v70,2013-04-12 09:30:00,
2013-04-12 04:35:00,41.6,33.9,29.93,NNW,336,0.0,9.0,74,0.00,,,0.00,Weather View 32 v70,2013-04-12 09:35:00,
2013-04-12 04:40:00,41.6,33.9,29.94,NNW,336,0.0,7.0,74,0.00,,,0.00,Weather View 32 v70,2013-04-12 09:40:00,
2013-04-12 04:45:00,41.5,34.2,29.94,NNW,336,0.0,7.0,75,0.00,,,0.00,Weather View 32 v70,2013-04-12 09:45:00,
2013-04-12 04:55:00,41.3,34.0,29.95,NNW,335,0.0,7.0,75,0.00,,,0.00,Weather View 32 v70,2013-04-12 09:55:00,
2013-04-12 05:00:00,41.2,33.9,29.95,NNW,336,0.0,4.0,75,0.00,,,0.00,Weather View 32 v70,2013-04-12 10:00:00,
2013-04-12 05:05:00,41.2,33.9,29.96,NNW,336,0.0,4.0,75,0.00,,,0.00,Weather View 32 v70,2013-04-12 10:05:00,
2013-04-12 05:10:00,41.1,34.1,29.96,NNW,336,0.0,4.0,76,0.00,,,0.00,Weather View 32 v70,2013-04-12 10:10:00,
2013-04-12 05:15:00,41.0,34.0,29.96,NNW,336,0.0,4.0,76,0.00,,,0.00,Weather View 32 v70,2013-04-12 10:15:00,
2013-04-12 05:20:00,40.9,33.9,29.96,NNW,336,0.0,4.0,76,0.00,,,0.00,Weather View 32 v70,2013-04-12 10:20:00,
2013-04-12 05:25:00,40.8,34.1,29.96,NNW,336,0.0,4.0,77,0.00,,,0.00,Weather View 32 v70,2013-04-12 10:25:00,
2013-04-12 05:35:00,40.6,34.3,29.97,NNW,336,0.0,6.0,78,0.00,,,0.00,Weather View 32 v70,2013-04-12 10:35:00,
2013-04-12 05:40:00,40.6,34.3,29.97,NNW,336,2.0,6.0,78,0.00,,,0.00,Weather View 32 v70,2013-04-12 10:40:00,
2013-04-12 05:50:00,40.4,34.1,29.97,NNW,337,0.0,6.0,78,0.00,,,0.00,Weather View 32 v70,2013-04-12 10:50:00,
2013-04-12 05:55:00,40.4,34.4,29.98,NNW,337,0.0,6.0,79,0.00,,,0.00,Weather View 32 v70,2013-04-12 10:55:00,
2013-04-12 06:00:00,40.3,34.3,29.98,NNW,337,0.0,6.0,79,0.00,,,0.00,Weather View 32 v70,2013-04-12 11:00:00,
2013-04-12 06:05:00,40.2,34.2,29.98,NNW,337,0.0,6.0,79,0.00,,,0.00,Weather View 32 v70,2013-04-12 11:05:00,
2013-04-12 06:15:00,40.0,33.7,29.99,NNW,337,0.0,6.0,78,0.00,,,0.00,Weather View 32 v70,2013-04-12 11:15:00,
2013-04-12 06:20:00,39.9,33.6,29.99,NNW,337,0.0,6.0,78,0.00,,,0.00,Weather View 32 v70,2013-04-12 11:20:00,
2013-04-12 06:25:00,39.9,33.6,29.99,NNW,337,0.0,6.0,78,0.00,,,0.00,Weather View 32 v70,2013-04-12 11:25:00,
2013-04-12 06:35:00,39.9,33.9,30.00,NNW,337,0.0,6.0,79,0.00,,,0.00,Weather View 32 v70,2013-04-12 11:35:00,
2013-04-12 06:45:00,40.0,33.4,30.00,NNW,337,0.0,5.0,77,0.00,,,0.00,Weather View 32 v70,2013-04-12 11:45:00,
2013-04-12 06:50:00,40.0,33.4,30.01,NNW,337,0.0,4.0,77,0.00,,,0.00,Weather View 32 v70,2013-04-12 11:50:00,
2013-04-12 06:55:00,40.0,33.4,30.01,NNW,337,0.0,4.0,77,0.00,,,0.00,Weather View 32 v70,2013-04-12 11:55:00,
2013-04-12 07:00:00,40.0,33.4,30.01,NNW,337,0.0,4.0,77,0.00,,,0.00,Weather View 32 v70,2013-04-12 12:00:00,
2013-04-12 07:05:00,40.0,33.4,30.01,NNW,337,0.0,4.0,77,0.00,,,0.00,Weather View 32 v70,2013-04-12 12:05:00,
2013-04-12 07:15:00,40.1,33.1,30.01,NNW,337,0.0,3.0,76,0.00,,,0.00,Weather View 32 v70,2013-04-12 12:15:00,
2013-04-12 07:20:00,40.2,33.2,30.02,NNW,337,0.0,3.0,76,0.00,,,0.00,Weather View 32 v70,2013-04-12 12:20:00,
2013-04-12 07:25:00,40.2,33.2,30.02,NNW,337,0.0,3.0,76,0.00,,,0.00,Weather View 32 v70,2013-04-12 12:25:00,
2013-04-12 07:30:00,40.3,33.3,30.02,NNW,337,0.0,3.0,76,0.00,,,0.00,Weather View 32 v70,2013-04-12 12:30:00,
2013-04-12 07:35:00,40.4,33.1,30.03,NNW,337,0.0,3.0,75,0.00,,,0.00,Weather View 32 v70,2013-04-12 12:35:00,
2013-04-12 07:45:00,40.7,33.4,30.03,NNW,336,4.0,6.0,75,0.00,,,0.00,Weather View 32 v70,2013-04-12 12:45:00,
2013-04-12 07:55:00,41.1,33.1,30.03,NNW,337,0.0,7.0,73,0.00,,,0.00,Weather View 32 v70,2013-04-12 12:55:00,
2013-04-12 08:00:00,41.3,32.9,30.04,NNW,338,0.0,7.0,72,0.00,,,0.00,Weather View 32 v70,2013-04-12 13:00:00,
2013-04-12 08:05:00,41.6,32.9,30.04,NNW,342,7.0,7.0,71,0.00,,,0.00,Weather View 32 v70,2013-04-12 13:05:00,
2013-04-12 08:10:00,41.7,31.9,30.04,North,354,1.0,8.0,68,0.00,,,0.00,Weather View 32 v70,2013-04-12 13:10:00,
2013-04-12 08:20:00,41.9,31.4,30.05,North,359,6.0,11.0,66,0.00,,,0.00,Weather View 32 v70,2013-04-12 13:20:00,
2013-04-12 08:25:00,42.0,30.3,30.05,NNW,344,1.0,12.0,63,0.00,,,0.00,Weather View 32 v70,2013-04-12 13:25:00,
2013-04-12 08:30:00,42.2,30.1,30.05,NW,315,5.0,12.0,62,0.00,,,0.00,Weather View 32 v70,2013-04-12 13:30:00,
2013-04-12 08:35:00,42.4,29.5,30.05,North,354,0.0,12.0,60,0.00,,,0.00,Weather View 32 v70,2013-04-12 13:35:00,
2013-04-12 08:40:00,42.5,29.2,30.05,North,354,2.0,12.0,59,0.00,,,0.00,Weather View 32 v70,2013-04-12 13:40:00,
2013-04-12 08:45:00,42.8,29.4,30.06,North,354,8.0,12.0,59,0.00,,,0.00,Weather View 32 v70,2013-04-12 13:45:00,
2013-04-12 08:55:00,43.1,28.9,30.06,North,354,5.0,12.0,57,0.00,,,0.00,Weather View 32 v70,2013-04-12 13:55:00,
2013-04-12 09:00:00,43.3,29.1,30.06,NNW,334,9.0,12.0,57,0.00,,,0.00,Weather View 32 v70,2013-04-12 14:00:00,
2013-04-12 09:05:00,43.5,29.3,30.07,North,354,4.0,12.0,57,0.00,,,0.00,Weather View 32 v70,2013-04-12 14:05:00,
2013-04-12 09:10:00,43.7,29.0,30.07,NNW,341,0.0,12.0,56,0.00,,,0.00,Weather View 32 v70,2013-04-12 14:10:00,
2013-04-12 09:15:00,43.7,29.0,30.07,North,359,0.0,12.0,56,0.00,,,0.00,Weather View 32 v70,2013-04-12 14:15:00,
2013-04-12 09:20:00,43.8,29.1,30.08,NNW,338,7.0,12.0,56,0.00,,,0.00,Weather View 32 v70,2013-04-12 14:20:00,
2013-04-12 09:30:00,44.3,29.1,30.08,NNW,347,3.0,12.0,55,0.00,,,0.00,Weather View 32 v70,2013-04-12 14:30:00,
2013-04-12 09:40:00,44.7,29.0,30.08,NW,314,5.0,14.0,54,0.00,,,0.00,Weather View 32 v70,2013-04-12 14:40:00,
2013-04-12 09:45:00,44.7,29.0,30.08,NNW,335,6.0,14.0,54,0.00,,,0.00,Weather View 32 v70,2013-04-12 14:45:00,
2013-04-12 09:50:00,44.9,29.2,30.08,NW,306,8.0,15.0,54,0.00,,,0.00,Weather View 32 v70,2013-04-12 14:50:00,
2013-04-12 10:00:00,45.3,29.1,30.08,NW,326,0.0,15.0,53,0.00,,,0.00,Weather View 32 v70,2013-04-12 15:00:00,
2013-04-12 10:10:00,46.0,29.8,30.08,NNW,337,10.0,15.0,53,0.00,,,0.00,Weather View 32 v70,2013-04-12 15:10:00,
2013-04-12 10:15:00,46.1,30.4,30.08,North,354,8.0,15.0,54,0.00,,,0.00,Weather View 32 v70,2013-04-12 15:15:00,
2013-04-12 10:20:00,46.1,29.9,30.08,NW,320,1.0,15.0,53,0.00,,,0.00,Weather View 32 v70,2013-04-12 15:20:00,
2013-04-12 10:30:00,46.5,30.3,30.08,NNW,345,12.0,15.0,53,0.00,,,0.00,Weather View 32 v70,2013-04-12 15:30:00,
2013-04-12 10:35:00,46.9,30.2,30.08,NNW,339,8.0,15.0,52,0.00,,,0.00,Weather View 32 v70,2013-04-12 15:35:00,
2013-04-12 10:45:00,47.7,30.4,30.08,NNW,346,10.0,15.0,51,0.00,,,0.00,Weather View 32 v70,2013-04-12 15:45:00,
2013-04-12 10:55:00,48.0,30.7,30.09,North,359,9.0,15.0,51,0.00,,,0.00,Weather View 32 v70,2013-04-12 15:55:00,
2013-04-12 11:00:00,48.5,30.7,30.08,NNE,19,10.0,15.0,50,0.00,,,0.00,Weather View 32 v70,2013-04-12 16:00:00,
2013-04-12 11:05:00,48.8,30.5,30.09,NW,314,8.0,15.0,49,0.00,,,0.00,Weather View 32 v70,2013-04-12 16:05:00,
2013-04-12 11:10:00,48.8,31.0,30.08,North,4,1.0,15.0,50,0.00,,,0.00,Weather View 32 v70,2013-04-12 16:10:00,
2013-04-12 11:15:00,49.1,30.7,30.08,NNW,339,0.0,15.0,49,0.00,,,0.00,Weather View 32 v70,2013-04-12 16:15:00,
2013-04-12 11:20:00,49.1,30.2,30.08,NNW,331,0.0,15.0,48,0.00,,,0.00,Weather View 32 v70,2013-04-12 16:20:00,
2013-04-12 11:25:00,49.0,30.6,30.08,NNW,339,1.0,15.0,49,0.00,,,0.00,Weather View 32 v70,2013-04-12 16:25:00,
2013-04-12 11:35:00,50.0,31.0,30.08,West,280,7.0,14.0,48,0.00,,,0.00,Weather View 32 v70,2013-04-12 16:35:00,
2013-04-12 11:45:00,50.1,30.6,30.08,NW,325,0.0,14.0,47,0.00,,,0.00,Weather View 32 v70,2013-04-12 16:45:00,
2013-04-12 11:50:00,50.5,31.0,30.09,NW,316,0.0,14.0,47,0.00,,,0.00,Weather View 32 v70,2013-04-12 16:50:00,
2013-04-12 11:55:00,51.2,30.5,30.08,NW,322,6.0,14.0,45,0.00,,,0.00,Weather View 32 v70,2013-04-12 16:55:00,
2013-04-12 12:00:00,51.6,30.9,30.08,West,281,0.0,14.0,45,0.00,,,0.00,Weather View 32 v70,2013-04-12 17:00:00,
2013-04-12 12:05:00,51.7,31.0,30.08,NNW,345,4.0,14.0,45,0.00,,,0.00,Weather View 32 v70,2013-04-12 17:05:00,
2013-04-12 12:15:00,52.2,29.8,30.09,WNW,303,8.0,14.0,42,0.00,,,0.00,Weather View 32 v70,2013-04-12 17:15:00,
2013-04-12 12:20:00,52.7,29.6,30.08,West,273,9.0,14.0,41,0.00,,,0.00,Weather View 32 v70,2013-04-12 17:20:00,
2013-04-12 12:25:00,52.9,29.8,30.08,WSW,249,0.0,14.0,41,0.00,,,0.00,Weather View 32 v70,2013-04-12 17:25:00,
2013-04-12 12:35:00,53.2,29.5,30.08,NW,314,2.0,14.0,40,0.00,,,0.00,Weather View 32 v70,2013-04-12 17:35:00,
2013-04-12 12:40:00,53.6,29.2,30.08,WNW,287,3.0,14.0,39,0.00,,,0.00,Weather View 32 v70,2013-04-12 17:40:00,
2013-04-12 12:45:00,54.1,29.6,30.08,WNW,295,0.0,14.0,39,0.00,,,0.00,Weather View 32 v70,2013-04-12 17:45:00,
2013-04-12 12:55:00,54.3,29.8,30.08,NNW,336,8.0,14.0,39,0.00,,,0.00,Weather View 32 v70,2013-04-12 17:55:00,
2013-04-12 13:00:00,54.9,29.7,30.08,NW,317,1.0,14.0,38,0.00,,,0.00,Weather View 32 v70,2013-04-12 18:00:00,
2013-04-12 13:10:00,54.9,29.1,30.08,NNW,341,9.0,14.0,37,0.00,,,0.00,Weather View 32 v70,2013-04-12 18:10:00,
2013-04-12 13:16:00,55.1,29.2,30.08,NW,316,2.0,14.0,37,0.00,,,0.00,Weather View 32 v70,2013-04-12 18:16:00,
2013-04-12 13:27:00,55.8,29.9,30.07,NNW,340,1.0,15.0,37,0.00,,,0.00,Weather View 32 v70,2013-04-12 18:27:00,
2013-04-12 14:26:00,58.2,30.6,30.06,NNW,346,2.0,13.0,35,0.00,,,0.00,Weather View 32 v70,2013-04-12 19:26:00,
2013-04-12 14:30:00,58.3,31.4,30.06,West,268,1.0,12.0,36,0.00,,,0.00,Weather View 32 v70,2013-04-12 19:30:00,
2013-04-12 14:35:00,58.8,31.1,30.06,West,278,1.0,12.0,35,0.00,,,0.00,Weather View 32 v70,2013-04-12 19:35:00,
2013-04-12 14:40:00,59.2,31.5,30.06,NNW,334,2.0,12.0,35,0.00,,,0.00,Weather View 32 v70,2013-04-12 19:40:00,
2013-04-12 14:45:00,59.2,30.8,30.06,NW,315,7.0,13.0,34,0.00,,,0.00,Weather View 32 v70,2013-04-12 19:45:00,
2013-04-12 14:50:00,59.6,31.1,30.05,WNW,301,4.0,13.0,34,0.00,,,0.00,Weather View 32 v70,2013-04-12 19:50:00,
2013-04-12 14:55:00,59.6,31.1,30.05,NNW,329,3.0,13.0,34,0.00,,,0.00,Weather View 32 v70,2013-04-12 19:55:00,
2013-04-12 15:00:00,59.5,31.8,30.04,North,4,0.0,13.0,35,0.00,,,0.00,Weather View 32 v70,2013-04-12 20:00:00,
2013-04-12 15:05:00,59.7,31.2,30.04,NW,305,11.0,13.0,34,0.00,,,0.00,Weather View 32 v70,2013-04-12 20:05:00,
2013-04-12 15:10:00,59.7,31.2,30.04,WNW,300,9.0,14.0,34,0.00,,,0.00,Weather View 32 v70,2013-04-12 20:10:00,
2013-04-12 15:15:00,60.0,31.5,30.04,NNW,331,1.0,14.0,34,0.00,,,0.00,Weather View 32 v70,2013-04-12 20:15:00,
2013-04-12 15:20:00,60.0,32.2,30.03,North,359,7.0,14.0,35,0.00,,,0.00,Weather View 32 v70,2013-04-12 20:20:00,
2013-04-12 15:25:00,60.4,31.8,30.03,North,359,2.0,14.0,34,0.00,,,0.00,Weather View 32 v70,2013-04-12 20:25:00,
2013-04-12 15:30:00,60.7,31.4,30.02,NW,317,10.0,15.0,33,0.00,,,0.00,Weather View 32 v70,2013-04-12 20:30:00,
2013-04-12 15:35:00,60.8,31.5,30.02,NNW,338,4.0,15.0,33,0.00,,,0.00,Weather View 32 v70,2013-04-12 20:35:00,
2013-04-12 15:40:00,60.8,32.2,30.01,North,359,6.0,15.0,34,0.00,,,0.00,Weather View 32 v70,2013-04-12 20:40:00,
2013-04-12 15:45:00,60.7,32.1,30.01,NNW,330,0.0,15.0,34,0.00,,,0.00,Weather View 32 v70,2013-04-12 20:45:00,
2013-04-12 15:50:00,60.9,31.5,30.02,NW,324,3.0,15.0,33,0.00,,,0.00,Weather View 32 v70,2013-04-12 20:50:00,
2013-04-12 15:55:00,60.5,31.9,30.02,North,8,0.0,15.0,34,0.00,,,0.00,Weather View 32 v70,2013-04-12 20:55:00,
2013-04-12 16:00:00,60.5,32.7,30.02,NNE,27,1.0,15.0,35,0.00,,,0.00,Weather View 32 v70,2013-04-12 21:00:00,
2013-04-12 16:05:00,60.7,32.1,30.01,North,354,4.0,15.0,34,0.00,,,0.00,Weather View 32 v70,2013-04-12 21:05:00,
2013-04-12 16:10:00,60.9,30.8,30.01,North,4,1.0,15.0,32,0.00,,,0.00,Weather View 32 v70,2013-04-12 21:10:00,
2013-04-12 16:15:00,61.5,32.1,30.01,WNW,300,2.0,15.0,33,0.00,,,0.00,Weather View 32 v70,2013-04-12 21:15:00,
2013-04-12 16:20:00,61.9,32.4,30.01,NNE,18,11.0,15.0,33,0.00,,,0.00,Weather View 32 v70,2013-04-12 21:20:00,
2013-04-12 16:25:00,61.8,31.6,30.01,North,4,0.0,15.0,32,0.00,,,0.00,Weather View 32 v70,2013-04-12 21:25:00,
2013-04-12 16:30:00,61.3,32.6,30.00,NNE,27,0.0,14.0,34,0.00,,,0.00,Weather View 32 v70,2013-04-12 21:30:00,
2013-04-12 16:35:00,61.2,31.8,30.00,NW,318,2.0,14.0,33,0.00,,,0.00,Weather View 32 v70,2013-04-12 21:35:00,
2013-04-12 16:45:00,61.4,32.0,30.01,NNW,342,6.0,14.0,33,0.00,,,0.00,Weather View 32 v70,2013-04-12 21:45:00,
2013-04-12 16:50:00,61.9,32.4,30.01,NNW,335,0.0,14.0,33,0.00,,,0.00,Weather View 32 v70,2013-04-12 21:50:00,
2013-04-12 17:00:00,61.4,32.0,30.00,North,4,2.0,14.0,33,0.00,,,0.00,Weather View 32 v70,2013-04-12 22:00:00,
2013-04-12 17:05:00,61.2,32.5,30.00,North,9,0.0,14.0,34,0.00,,,0.00,Weather View 32 v70,2013-04-12 22:05:00,
2013-04-12 17:15:00,62.7,33.1,30.01,North,4,0.0,12.0,33,0.00,,,0.00,Weather View 32 v70,2013-04-12 22:15:00,
2013-04-12 17:20:00,62.7,33.1,30.01,North,10,0.0,12.0,33,0.00,,,0.00,Weather View 32 v70,2013-04-12 22:20:00,
2013-04-12 17:25:00,62.9,33.3,30.01,North,10,0.0,12.0,33,0.00,,,0.00,Weather View 32 v70,2013-04-12 22:25:00,
2013-04-12 17:30:00,63.0,33.4,30.01,North,10,0.0,11.0,33,0.00,,,0.00,Weather View 32 v70,2013-04-12 22:30:00,
2013-04-12 17:35:00,63.5,33.8,30.01,North,10,0.0,11.0,33,0.00,,,0.00,Weather View 32 v70,2013-04-12 22:35:00,
2013-04-12 17:40:00,63.8,33.3,30.01,North,354,0.0,11.0,32,0.00,,,0.00,Weather View 32 v70,2013-04-12 22:40:00,
2013-04-12 17:45:00,63.5,33.0,30.00,NE,36,2.0,11.0,32,0.00,,,0.00,Weather View 32 v70,2013-04-12 22:45:00,
2013-04-12 17:50:00,62.8,33.2,30.01,NE,38,0.0,8.0,33,0.00,,,0.00,Weather View 32 v70,2013-04-12 22:50:00,
2013-04-12 17:55:00,62.5,32.9,30.00,NE,39,0.0,8.0,33,0.00,,,0.00,Weather View 32 v70,2013-04-12 22:55:00,
2013-04-12 18:00:00,62.1,32.6,30.01,NE,38,0.0,8.0,33,0.00,,,0.00,Weather View 32 v70,2013-04-12 23:00:00,
2013-04-12 18:05:00,62.3,32.8,30.01,NE,38,0.0,6.0,33,0.00,,,0.00,Weather View 32 v70,2013-04-12 23:05:00,
2013-04-12 18:10:00,62.3,32.8,30.01,NE,35,0.0,5.0,33,0.00,,,0.00,Weather View 32 v70,2013-04-12 23:10:00,
2013-04-12 18:20:00,62.7,33.1,30.01,NE,35,2.0,5.0,33,0.00,,,0.00,Weather View 32 v70,2013-04-12 23:20:00,
2013-04-12 18:25:00,62.3,32.8,30.01,NE,35,0.0,5.0,33,0.00,,,0.00,Weather View 32 v70,2013-04-12 23:25:00,
2013-04-12 18:30:00,61.9,32.4,30.01,NE,35,0.0,5.0,33,0.00,,,0.00,Weather View 32 v70,2013-04-12 23:30:00,
2013-04-12 18:35:00,62.0,33.2,30.01,NE,35,2.0,5.0,34,0.00,,,0.00,Weather View 32 v70,2013-04-12 23:35:00,
2013-04-12 18:45:00,62.1,33.3,30.01,NNE,29,2.0,5.0,34,0.00,,,0.00,Weather View 32 v70,2013-04-12 23:45:00,
2013-04-12 18:50:00,62.0,33.2,30.01,NNE,27,0.0,5.0,34,0.00,,,0.00,Weather View 32 v70,2013-04-12 23:50:00,
2013-04-12 19:00:00,61.6,32.9,30.00,NNE,27,0.0,5.0,34,0.00,,,0.00,Weather View 32 v70,2013-04-13 00:00:00,
2013-04-12 19:10:00,61.3,32.6,30.00,NNE,24,3.0,5.0,34,0.00,,,0.00,Weather View 32 v70,2013-04-13 00:10:00,
2013-04-12 19:15:00,61.1,33.9,30.00,NNE,24,0.0,5.0,36,0.00,,,0.00,Weather View 32 v70,2013-04-13 00:15:00,
2013-04-12 19:25:00,60.6,33.4,30.00,NNE,24,0.0,5.0,36,0.00,,,0.00,Weather View 32 v70,2013-04-13 00:25:00,
2013-04-12 19:30:00,60.5,33.4,30.00,NNE,24,0.0,5.0,36,0.00,,,0.00,Weather View 32 v70,2013-04-13 00:30:00,
2013-04-12 19:35:00,60.4,33.3,30.00,NNE,24,0.0,5.0,36,0.00,,,0.00,Weather View 32 v70,2013-04-13 00:35:00,
2013-04-12 19:40:00,60.4,33.3,30.00,NNE,24,0.0,5.0,36,0.00,,,0.00,Weather View 32 v70,2013-04-13 00:40:00,
2013-04-12 19:50:00,60.1,33.7,30.00,NNE,24,0.0,4.0,37,0.00,,,0.00,Weather View 32 v70,2013-04-13 00:50:00,
2013-04-12 19:55:00,60.0,33.6,30.00,NNE,24,0.0,4.0,37,0.00,,,0.00,Weather View 32 v70,2013-04-13 00:55:00,
2013-04-12 20:05:00,60.0,34.3,30.00,NNE,24,0.0,4.0,38,0.00,,,0.00,Weather View 32 v70,2013-04-13 01:05:00,
2013-04-12 20:10:00,59.9,33.5,30.01,NNE,24,0.0,4.0,37,0.00,,,0.00,Weather View 32 v70,2013-04-13 01:10:00,
2013-04-12 20:15:00,59.8,33.4,30.01,NNE,24,0.0,4.0,37,0.00,,,0.00,Weather View 32 v70,2013-04-13 01:15:00,
2013-04-12 20:25:00,59.8,34.1,30.01,NNE,24,0.0,4.0,38,0.00,,,0.00,Weather View 32 v70,2013-04-13 01:25:00,
2013-04-12 20:30:00,59.7,34.0,30.01,NNE,24,0.0,4.0,38,0.00,,,0.00,Weather View 32 v70,2013-04-13 01:30:00,
2013-04-12 20:35:00,59.6,33.9,30.01,NNE,24,0.0,4.0,38,0.00,,,0.00,Weather View 32 v70,2013-04-13 01:35:00,
2013-04-12 20:40:00,59.6,34.6,30.02,NNE,25,0.0,4.0,39,0.00,,,0.00,Weather View 32 v70,2013-04-13 01:40:00,
2013-04-12 20:50:00,59.3,34.9,30.02,NNE,26,0.0,4.0,40,0.00,,,0.00,Weather View 32 v70,2013-04-13 01:50:00,
2013-04-12 20:55:00,59.1,35.4,30.02,NE,55,3.0,4.0,41,0.00,,,0.00,Weather View 32 v70,2013-04-13 01:55:00,
2013-04-12 21:05:00,58.6,35.5,30.02,NE,56,0.0,4.0,42,0.00,,,0.00,Weather View 32 v70,2013-04-13 02:05:00,
2013-04-12 21:10:00,58.5,35.4,30.02,NE,56,0.0,4.0,42,0.00,,,0.00,Weather View 32 v70,2013-04-13 02:10:00,
2013-04-12 21:15:00,58.3,35.3,30.02,NE,56,0.0,4.0,42,0.00,,,0.00,Weather View 32 v70,2013-04-13 02:15:00,
2013-04-12 21:25:00,58.0,35.6,30.03,NE,56,0.0,4.0,43,0.00,,,0.00,Weather View 32 v70,2013-04-13 02:25:00,
2013-04-12 21:31:00,57.8,35.4,30.03,NE,56,0.0,4.0,43,0.00,,,0.00,Weather View 32 v70,2013-04-13 02:31:00,
2013-04-12 21:40:00,57.5,35.7,30.04,NE,56,0.0,4.0,44,0.00,,,0.00,Weather View 32 v70,2013-04-13 02:40:00,
2013-04-12 21:45:00,57.3,36.1,30.04,NE,56,0.0,4.0,45,0.00,,,0.00,Weather View 32 v70,2013-04-13 02:45:00,
2013-04-12 21:55:00,57.0,36.4,30.04,NE,56,0.0,4.0,46,0.00,,,0.00,Weather View 32 v70,2013-04-13 02:55:00,
2013-04-12 22:00:00,56.8,36.2,30.05,NE,56,0.0,3.0,46,0.00,,,0.00,Weather View 32 v70,2013-04-13 03:00:00,
2013-04-12 22:05:00,56.7,36.7,30.05,NE,56,0.0,3.0,47,0.00,,,0.00,Weather View 32 v70,2013-04-13 03:05:00,
2013-04-12 22:15:00,56.6,36.6,30.05,NE,56,0.0,3.0,47,0.00,,,0.00,Weather View 32 v70,2013-04-13 03:15:00,
2013-04-12 22:20:00,56.5,36.5,30.05,NE,56,0.0,3.0,47,0.00,,,0.00,Weather View 32 v70,2013-04-13 03:20:00,
2013-04-12 22:30:00,56.3,36.8,30.05,NE,56,0.0,4.0,48,0.00,,,0.00,Weather View 32 v70,2013-04-13 03:30:00,
2013-04-12 22:35:00,56.2,36.7,30.05,NE,56,0.0,4.0,48,0.00,,,0.00,Weather View 32 v70,2013-04-13 03:35:00,
2013-04-12 22:45:00,56.0,36.5,30.05,NE,56,0.0,4.0,48,0.00,,,0.00,Weather View 32 v70,2013-04-13 03:45:00,
2013-04-12 22:55:00,55.9,36.5,30.05,NE,56,0.0,4.0,48,0.00,,,0.00,Weather View 32 v70,2013-04-13 03:55:00,
2013-04-12 23:00:00,55.8,36.4,30.05,NE,56,0.0,4.0,48,0.00,,,0.00,Weather View 32 v70,2013-04-13 04:00:00,
2013-04-12 23:05:00,55.9,36.5,30.06,NE,56,0.0,4.0,48,0.00,,,0.00,Weather View 32 v70,2013-04-13 04:05:00,
2013-04-12 23:10:00,55.8,36.4,30.06,NE,56,0.0,4.0,48,0.00,,,0.00,Weather View 32 v70,2013-04-13 04:10:00,
2013-04-12 23:15:00,55.7,36.3,30.05,NE,56,0.0,4.0,48,0.00,,,0.00,Weather View 32 v70,2013-04-13 04:15:00,
2013-04-12 23:20:00,55.6,36.2,30.06,NE,56,0.0,4.0,48,0.00,,,0.00,Weather View 32 v70,2013-04-13 04:20:00,
2013-04-12 23:25:00,55.5,36.1,30.06,NE,56,0.0,4.0,48,0.00,,,0.00,Weather View 32 v70,2013-04-13 04:25:00,
2013-04-12 23:30:00,55.5,36.1,30.05,NE,56,0.0,4.0,48,0.00,,,0.00,Weather View 32 v70,2013-04-13 04:30:00,
2013-04-12 23:35:00,55.5,36.1,30.05,NE,56,0.0,4.0,48,0.00,,,0.00,Weather View 32 v70,2013-04-13 04:35:00,
2013-04-12 23:40:00,55.6,36.2,30.06,NE,56,0.0,4.0,48,0.00,,,0.00,Weather View 32 v70,2013-04-13 04:40:00,
2013-04-12 23:45:00,55.5,36.1,30.05,NE,56,0.0,4.0,48,0.00,,,0.00,Weather View 32 v70,2013-04-13 04:45:00,
2013-04-12 23:50:00,55.4,36.0,30.06,NE,56,0.0,4.0,48,0.00,,,0.00,Weather View 32 v70,2013-04-13 04:50:00,